Savoy, IL

2:53 AM CST on February 24, 2017 (GMT -0600)
Univ Of Illinois-Willard

Weather History for KCMI - May, 2013

Change the Weather History Date:

Wednesday, May 29, 2013

  Actual Average Record
Temperature  
Mean Temperature 77 °F 68 °F  
Max Temperature 88 °F 80 °F 93 °F (2006)
Min Temperature 65 °F 55 °F 39 °F (2001)
Degree Days  
Heating Degree Days 0 2  
Month to date heating degree days 113 137  
Since 1 July heating degree days 5638 5801  
Cooling Degree Days 12 4  
Month to date cooling degree days 106 72  
Year to date cooling degree days 114 83  
Growing Degree Days 26 (Base 50)    
Moisture  
Dew Point 63 °F    
Average Humidity 65    
Maximum Humidity 87    
Minimum Humidity 43    
Precipitation  
Precipitation 0.00 in 0.14 in 0.70 in (2014)
Month to date precipitation 2.59 4.27  
Year to date precipitation 14.83 14.88  
Sea Level Pressure  
Sea Level Pressure 29.94 in    
Wind  
Wind Speed 16 mph (South)    
Max Wind Speed 26 mph    
Max Gust Speed 32 mph    
Visibility 10 miles    
Events      
T = Trace of Precipitation, MM = Missing Value Source: NWS Daily Summary

Daily Weather History Graph

Daily Weather History Graph

Search for Another Location

Airport or City:

Trip Planner

Search our weather history database for the weather conditions in past years. The results will help you decide how hot, cold, wet, or windy it might be!

Date:

Astronomy

May. 29, 2013 Rise Set
Actual Time 5:27 AM CDT 8:14 PM CDT
Civil Twilight 4:55 AM CDT 8:46 PM CDT
Nautical Twilight 4:15 AM CDT 9:26 PM CDT
Astronomical Twilight 3:29 AM CDT 10:12 PM CDT
Moon No Moon Rise 10:26 AM CDT (5/29)
Length of Visible Light 15h 50m
Length of Day
14h 46m
Waning Gibbous, 73% of the Moon is Illuminated
May 29
Waning Gibbous
May 31
Last Quarter
Jun 8
New
Jun 16
First Quarter
Jun 23
Full

Hourly Weather History & Observations

Time (CDT) Temp. Heat Index Dew Point Humidity Pressure Visibility Wind Dir Wind Speed Gust Speed Precip Events Conditions
12:53 AM 72.0 °F - 64.0 °F 76% 29.90 in 10.0 mi South 10.4 mph - N/A   Overcast
1:46 AM 69.8 °F - 60.8 °F 73% 29.95 in 10.0 mi West 16.1 mph 28.8 mph N/A   Overcast
1:53 AM 69.1 °F - 61.0 °F 75% 29.93 in 10.0 mi West 13.8 mph - N/A   Overcast
2:53 AM 66.0 °F - 60.1 °F 81% 29.93 in 10.0 mi SSW 4.6 mph - N/A   Mostly Cloudy
3:53 AM 64.9 °F - 60.1 °F 84% 29.93 in 10.0 mi South 8.1 mph - N/A   Partly Cloudy
4:53 AM 66.0 °F - 59.0 °F 78% 29.94 in 10.0 mi South 8.1 mph - N/A   Mostly Cloudy
5:53 AM 66.9 °F - 59.0 °F 76% 29.94 in 10.0 mi South 11.5 mph - N/A   Clear
6:53 AM 69.1 °F - 61.0 °F 75% 29.94 in 10.0 mi South 16.1 mph - N/A   Partly Cloudy
7:53 AM 71.1 °F - 63.0 °F 75% 29.94 in 10.0 mi South 17.3 mph 24.2 mph N/A   Clear
8:53 AM 75.0 °F - 64.0 °F 69% 29.96 in 10.0 mi SSW 19.6 mph - N/A   Clear
9:53 AM 78.1 °F - 64.9 °F 64% 29.96 in 10.0 mi SSW 21.9 mph 27.6 mph N/A   Clear
10:53 AM 81.0 °F 83.0 °F 66.0 °F 60% 29.96 in 10.0 mi SSW 23.0 mph - N/A   Clear
11:53 AM 82.9 °F 85.0 °F 66.0 °F 56% 29.96 in 10.0 mi SSW 21.9 mph 28.8 mph N/A   Partly Cloudy
12:53 PM 84.0 °F 85.8 °F 64.9 °F 53% 29.96 in 10.0 mi SSW 15.0 mph - N/A   Scattered Clouds
1:53 PM 86.0 °F 87.6 °F 64.9 °F 49% 29.95 in 10.0 mi South 21.9 mph 28.8 mph N/A   Scattered Clouds
2:53 PM 84.9 °F 86.1 °F 64.0 °F 49% 29.94 in 10.0 mi South 19.6 mph 26.5 mph N/A   Scattered Clouds
3:53 PM 87.1 °F 87.8 °F 63.0 °F 44% 29.93 in 10.0 mi South 20.7 mph 26.5 mph N/A   Partly Cloudy
4:53 PM 86.0 °F 87.3 °F 64.0 °F 48% 29.92 in 10.0 mi South 19.6 mph 26.5 mph N/A   Scattered Clouds
5:53 PM 84.9 °F 85.9 °F 63.0 °F 48% 29.91 in 10.0 mi South 24.2 mph 29.9 mph N/A   Clear
6:53 PM 82.9 °F 84.0 °F 63.0 °F 51% 29.91 in 10.0 mi South 18.4 mph 26.5 mph N/A   Clear
7:53 PM 79.0 °F - 62.1 °F 56% 29.90 in 10.0 mi SSE 12.7 mph - N/A   Clear
8:53 PM 75.9 °F - 61.0 °F 60% 29.91 in 10.0 mi SSE 12.7 mph - N/A   Clear
9:53 PM 75.0 °F - 61.0 °F 62% 29.92 in 10.0 mi SSE 15.0 mph - N/A   Clear
10:53 PM 73.9 °F - 63.0 °F 68% 29.94 in 10.0 mi SSE 15.0 mph - N/A   Clear
11:53 PM 73.0 °F - 63.0 °F 71% 29.96 in 10.0 mi SSE 10.4 mph - N/A   Clear